Regional Weather Roundup
Issued by NWS

Home | Current Version | Previous Version | Graphics & Text | Print | Product List | Glossary Off
Versions: 1 2 3 4 5 6 7 8 9 10 11 12 13 14 15 16 17 18 19 20 21 22 23 24 25 26 27 28 29 30 31 32 33 34 35 36 37 38 39 40 41 42 43 44 45 46 47 48 49 50

000
ASUS43 KTOP 251408
RWRKS

WEATHER ROUNDUP FOR KANSAS
NATIONAL WEATHER SERVICE GOODLAND KS
900 AM CDT SAT APR 25 2015

NOTE:  "FAIR" INDICATES FEW OR NO CLOUDS BELOW 12,000 FEET WITH NO
SIGNIFICANT WEATHER AND/OR OBSTRUCTIONS TO VISIBILITY.

KSZ001>006-013>018-027>032-041>047-251500-
NORTHWEST KANSAS

CITY           SKY/WX    TMP DP  RH WIND       PRES   REMARKS
GOODLAND       SUNNY     52  42  69 NW13      29.70R
HAYS           MOSUNNY   57  46  67 NW16G23   29.60R
HILL CITY      CLOUDY    58  49  72 NW16      29.61R
RUSSELL        SUNNY     58  51  78 NW15      29.57R
$$

KSZ061>065-074>080-084>089-251500-
SOUTHWEST KANSAS

CITY           SKY/WX    TMP DP  RH WIND       PRES   REMARKS
DODGE CITY     SUNNY     58  45  62 NW14      29.65R
ELKHART          N/A     55  33  43 W10         N/A
GARDEN CITY    SUNNY     54  42  64 NW16      29.66R
GREAT BEND     MOSUNNY   57  50  77 NW12      29.60R
LIBERAL        SUNNY     57  43  58 W16       29.69S
$$

KSZ066>073-081>083-090>101-251500-
SOUTHEAST KANSAS

CITY           SKY/WX    TMP DP  RH WIND       PRES   REMARKS
CHANUTE        SUNNY     63  54  72 W15G23    29.51R
COFFEYVILLE    MOSUNNY   64  54  69 SW13      29.54R
HUTCHINSON     SUNNY     62  51  67 W14       29.57R
MEDICINE LODGE   N/A     61  49  64 W13G21    29.60R
NEWTON         SUNNY     57  48  72 NW15G22   29.57R
PARSONS        SUNNY     64  55  72 W13       29.54R
WICHITA INTL   MOSUNNY   61  52  72 W13       29.57R
WICHITA JABRA  SUNNY     61  52  72 W17       29.56R
WICHITA MCCONL SUNNY     61  52  71 W14       29.57R
WINFIELD       SUNNY     63  52  67 W16G23    29.58R
$$

KSZ007>012-019>026-033>040-048>060-102>105-251500-
NORTHEAST KANSAS

CITY           SKY/WX    TMP DP  RH WIND       PRES   REMARKS
CONCORDIA      CLOUDY    56  54  93 N12       29.51R
EMPORIA        MOSUNNY   58  54  86 W15G22    29.50R
LAWRENCE       CLOUDY    59  54  83 W9        29.43R
MANHATTAN      LGT RAIN  58  55  90 W8        29.47R
MARYSVILLE     RAIN      55  54  94 N10       29.46R
OLATHE IND     MOSUNNY   59  56  89 S6        29.43F
OLATHE EXE     PTSUNNY   59  57  93 CALM      29.42S
SALINA         CLOUDY    59  53  80 W14       29.53R
TOPEKA BILLARD CLOUDY    58  54  86 SW9       29.42R
TOPEKA FORBES  CLOUDY    59  54  83 W17       29.42R
$$



USA.gov is the U.S. government's official web portal to all federal, state and local government web resources and services.